Location: Kelowna
(49.9000°N, 119.4830°W)
Time: 21:33:39
(UTC-08:00)

Tiangong 2 - Visible Passes

Search period start: 15 February 2019 00:00
Search period end: 25 February 2019 00:00
Orbit: 381 x 390 km, 42.8° (Epoch: 15 February)

Date Brightness Start Highest point End Pass type
(mag) Time Alt. Az. Time Alt. Az. Time Alt. Az.
15 Feb 3.0 18:00:36 10° SW 18:03:09 22° S 18:05:42 10° SE visible
15 Feb 3.7 19:37:15 10° WSW 19:38:34 15° SSW 19:38:34 15° SSW visible
16 Feb 3.2 18:37:56 10° WSW 18:40:18 20° S 18:42:14 12° SSE visible
17 Feb 3.8 19:15:58 10° SW 19:17:22 12° SSW 19:18:13 11° S visible
18 Feb 3.6 18:16:19 10° WSW 18:18:23 16° SSW 18:20:27 10° SSE visible
20 Feb 4.0 17:55:00 10° SW 17:56:24 12° SSW 17:57:46 10° S visible
